EW7507 Weather Reports


time (UTC)temp
F
wind
direction
speed
knots
gust
knots
rain 1hr
in
rain 24hr
in
rain mn
in
humidity
%
barometer
mb
20260504000455 78 358 0.9 3.5 0.00 0.00 0.00 16 966.6
20260503235955 79 358 0.0 3.5 0.00 0.00 0.00 15 966.6
20260503235455 79 354 1.7 4.3 0.00 0.00 0.00 16 966.7
20260503235001 79 354 2.6 6.1 0.00 0.00 0.00 15 966.7
20260503234954 79 354 2.6 6.1 0.00 0.00 0.00 15 966.7
20260503234621 80 7 2.6 5.2 0.00 0.00 0.00 15 966.6
20260503233454 80 10 1.7 4.3 0.00 0.00 0.00 15 966.8
20260503232953 80 8 0.0 3.5 0.00 0.00 0.00 14 966.8
20260503232455 79 8 1.7 6.1 0.00 0.00 0.00 14 966.8
20260503231953 79 8 3.5 6.1 0.00 0.00 0.00 16 966.9
20260503231454 79 20 1.7 5.2 0.00 0.00 0.00 15 966.9
20260503230953 79 20 3.5 6.1 0.00 0.00 0.00 15 966.9
20260503230455 79 0 4.3 8.7 0.00 0.00 0.00 15 967.0
20260503225953 79 317 2.6 8.7 0.00 0.00 0.00 15 967.1
20260503225453 78 345 4.3 8.7 0.00 0.00 0.00 17 967.2
20260503224953 79 17 0.0 3.5 0.00 0.00 0.00 16 967.1
20260503224454 79 49 0.9 6.1 0.00 0.00 0.00 16 967.2
20260503223951 79 51 3.5 9.6 0.00 0.00 0.00 16 967.4
20260503223453 79 347 4.3 9.6 0.00 0.00 0.00 16 967.3
20260503222952 79 24 5.2 9.6 0.00 0.00 0.00 16 967.4
20260503222453 79 3 3.5 8.7 0.00 0.00 0.00 16 967.5
20260503221952 79 333 1.7 7.8 0.00 0.00 0.00 16 967.6
20260503221453 80 334 3.5 7.8 0.00 0.00 0.00 16 967.7
20260503220951 79 0 4.3 8.7 0.00 0.00 0.00 17 967.8
20260503220452 79 350 5.2 8.7 0.00 0.00 0.00 16 967.8
20260503215950 80 262 1.7 13.0 0.00 0.00 0.00 17 967.7
20260503215453 79 296 2.6 13.0 0.00 0.00 0.00 16 967.9
20260503214952 80 310 7.0 11.3 0.00 0.00 0.00 16 967.9
20260503214452 80 312 5.2 10.4 0.00 0.00 0.00 16 968.0
20260503213950 80 7 5.2 10.4 0.00 0.00 0.00 16 968.1
20260503213452 80 329 5.2 10.4 0.00 0.00 0.00 16 968.1
20260503212951 80 296 2.6 8.7 0.00 0.00 0.00 18 968.1
20260503212451 79 8 2.6 8.7 0.00 0.00 0.00 17 968.2
20260503211951 79 0 4.3 9.6 0.00 0.00 0.00 17 968.2
20260503211451 79 0 6.1 10.4 0.00 0.00 0.00 16 968.3
20260503210949 78 343 5.2 12.2 0.00 0.00 0.00 16 968.5
20260503210451 78 337 7.0 12.2 0.00 0.00 0.00 16 968.5
20260503205949 78 329 5.2 11.3 0.00 0.00 0.00 16 968.5
20260503205459 78 312 4.3 11.3 0.00 0.00 0.00 16 968.8
20260503205452 78 337 6.1 11.3 0.00 0.00 0.00 16 968.6
20260503204459 79 18 4.3 9.6 0.00 0.00 0.00 16 968.9
20260503204452 79 326 7.0 11.3 0.00 0.00 0.00 17 968.8
20260503203459 78 0 3.5 10.4 0.00 0.00 0.00 17 968.8
20260503203451 79 337 3.5 9.6 0.00 0.00 0.00 16 968.9
20260503202450 78 312 4.3 10.4 0.00 0.00 0.00 17 968.9
20260503201949 78 42 0.9 11.3 0.00 0.00 0.00 17 969.0
20260503201449 78 355 7.0 11.3 0.00 0.00 0.00 17 969.0
20260503200948 78 18 3.5 8.7 0.00 0.00 0.00 17 969.0
20260503200449 78 344 5.2 8.7 0.00 0.00 0.00 18 969.1
20260503195957 78 327 5.2 12.2 0.00 0.00 0.00 17 969.2
20260503195949 78 338 5.2 9.6 0.00 0.00 0.00 18 969.1
20260503195613 78 309 7.0 12.2 0.00 0.00 0.00 18 969.3
20260503194449 77 319 5.2 9.6 0.00 0.00 0.00 18 969.4
20260503193947 76 271 2.6 6.1 0.00 0.00 0.00 20 969.5
20260503193449 77 178 3.5 6.1 0.00 0.00 0.00 16 969.5
20260503192947 76 283 3.5 6.1 0.00 0.00 0.00 17 969.7
20260503192451 76 220 3.5 5.2 0.00 0.00 0.00 18 969.8
20260503191952 73 159 0.9 7.8 0.00 0.00 0.00 22 969.9
20260503191947 74 159 0.9 2.6 0.00 0.00 0.00 19 969.8
20260503190946 73 159 2.6 7.8 0.00 0.00 0.00 18 970.0
20260503190448 74 175 0.0 2.6 0.00 0.00 0.00 19 970.1
20260503185954 77 250 0.9 7.8 0.00 0.00 0.00 18 970.3
20260503185947 74 192 0.9 7.8 0.00 0.00 0.00 21 970.2
20260503184947 76 266 0.9 7.8 0.00 0.00 0.00 17 970.6
20260503184448 76 269 2.6 7.8 0.00 0.00 0.00 18 970.7
20260503183945 76 310 1.7 9.6 0.00 0.00 0.00 19 970.8
20260503183454 76 202 3.5 11.3 0.00 0.00 0.00 20 970.8
20260503183447 76 327 5.2 9.6 0.00 0.00 0.00 19 970.8
20260503183112 75 204 4.3 11.3 0.00 0.00 0.00 22 970.7
20260503181953 75 196 6.1 8.7 0.00 0.00 0.00 20 970.8
20260503181946 74 185 0.0 8.7 0.00 0.00 0.00 20 970.8
20260503180946 75 320 3.5 6.1 0.00 0.00 0.00 20 970.9
20260503180448 74 320 3.5 6.1 0.00 0.00 0.00 20 971.0
20260503175946 74 298 3.5 4.3 0.00 0.00 0.00 20 971.0
20260503175446 74 286 1.7 4.3 0.00 0.00 0.00 20 971.0
20260503174945 72 282 1.7 3.5 0.00 0.00 0.00 24 971.0
20260503174444 74 217 1.7 6.1 0.00 0.00 0.00 19 971.0
20260503173952 74 235 3.5 6.1 0.00 0.00 0.00 22 971.1
20260503173944 74 238 0.9 6.1 0.00 0.00 0.00 19 971.0
20260503172945 74 259 3.5 6.1 0.00 0.00 0.00 21 971.4
20260503172453 73 281 1.7 7.8 0.00 0.00 0.00 22 971.7
20260503172445 73 0 2.6 5.2 0.00 0.00 0.00 20 971.7
20260503172110 73 264 4.3 7.8 0.00 0.00 0.00 23 971.7
20260503170943 71 226 2.6 6.1 0.00 0.00 0.00 23 971.8
20260503170445 71 340 3.5 6.1 0.00 0.00 0.00 21 971.8
20260503150941 60 254 1.7 4.3 0.00 0.00 0.00 51 972.4
20260503150443 58 254 2.6 4.3 0.00 0.00 0.00 54 972.5
20260503130439 38 271 0.9 2.6 0.00 0.00 0.00 80 973.3
20260503110436 41 271 0.0 2.6 0.00 0.00 0.00 76 973.2
20260503090434 45 272 0.9 3.5 0.00 0.00 0.00 73 973.1
20260503081431 46 178 4.3 7.8 0.00 0.00 0.00 73 972.8
20260503080938 46 224 2.6 5.2 0.00 0.00 0.00 74 972.8
20260503080930 46 224 1.7 5.2 0.00 0.00 0.00 73 972.9
20260503072930 46 289 1.7 3.5 0.00 0.00 0.00 74 973.0
20260503072438 47 290 1.7 2.6 0.00 0.00 0.00 72 973.0
20260503072431 46 290 1.7 2.6 0.00 0.00 0.00 73 973.0
20260503071430 47 290 1.7 4.3 0.00 0.00 0.00 71 973.0
20260503070928 48 290 2.6 4.3 0.00 0.00 0.00 69 973.0
20260503070431 48 292 0.9 2.6 0.00 0.00 0.00 68 973.1
20260503054926 49 204 0.9 3.5 0.00 0.00 0.00 66 973.3
20260503054430 50 204 2.6 3.5 0.00 0.00 0.00 65 973.5
20260503053926 50 203 1.7 3.5 0.00 0.00 0.00 64 973.5
20260503053428 50 203 0.9 2.6 0.00 0.00 0.00 63 973.5
20260503052926 50 203 0.9 3.5 0.00 0.00 0.00 62 973.5
20260503052426 51 203 1.7 4.3 0.00 0.00 0.00 61 973.5
20260503051926 51 203 3.5 4.3 0.00 0.00 0.00 61 973.6
20260503051426 51 202 2.6 4.3 0.00 0.00 0.00 61 973.5
20260503050926 51 200 3.5 4.3 0.00 0.00 0.00 59 973.5
20260503050428 52 200 2.6 4.3 0.00 0.00 0.00 58 973.5
20260503045926 53 199 1.7 3.5 0.00 0.00 0.00 58 973.5
20260503045427 53 199 1.7 4.3 0.00 0.00 0.00 58 973.4
20260503044932 53 196 1.7 4.3 0.00 0.00 0.00 57 973.5
20260503044925 53 199 2.6 4.3 0.00 0.00 0.00 57 973.5
20260503043924 53 195 3.5 5.2 0.00 0.00 0.00 57 973.6
20260503043427 54 193 3.5 5.2 0.00 0.00 0.00 56 973.7
20260503042924 55 221 3.5 5.2 0.00 0.00 0.00 55 973.6
20260503042428 55 219 3.5 5.2 0.00 0.00 0.00 54 973.6
20260503041924 56 219 3.5 3.5 0.00 0.00 0.00 53 973.7
20260503041427 56 214 1.7 5.2 0.00 0.00 0.00 52 973.7
20260503040932 57 226 2.6 3.5 0.00 0.00 0.00 51 973.6
20260503040924 56 213 3.5 5.2 0.00 0.00 0.00 52 973.6
20260503035924 57 197 1.7 4.3 0.00 0.00 0.00 50 973.7
20260503035425 58 195 2.6 4.3 0.00 0.00 0.00 49 973.6
20260503034924 58 154 1.7 4.3 0.00 0.00 0.00 49 973.5
20260503034425 59 152 1.7 4.3 0.00 0.00 0.00 48 973.5
20260503033924 59 173 0.9 3.5 0.00 0.00 0.00 48 973.5
20260503033424 59 164 1.7 2.6 0.00 0.00 0.00 49 973.6
20260503032931 59 169 0.9 1.7 0.00 0.00 0.00 45 973.5
20260503032924 59 168 0.0 1.7 0.00 0.00 0.00 48 973.5
20260503031923 60 169 0.9 2.6 0.00 0.00 0.00 44 973.5
20260503031424 61 169 0.0 2.6 0.00 0.00 0.00 44 973.4
20260503030929 61 213 0.0 1.7 0.00 0.00 0.00 40 973.3
20260503030922 60 183 0.9 1.7 0.00 0.00 0.00 44 973.4
20260503025923 61 213 0.9 1.7 0.00 0.00 0.00 39 973.2
20260503025424 62 213 0.0 1.7 0.00 0.00 0.00 39 973.2
20260503024922 62 213 0.9 3.5 0.00 0.00 0.00 40 973.2
20260503024427 62 213 0.9 3.5 0.00 0.00 0.00 39 973.2
20260503023923 63 213 2.6 3.5 0.00 0.00 0.00 39 973.2
20260503023424 63 214 2.6 3.5 0.00 0.00 0.00 38 973.2
20260503022921 64 217 0.9 1.7 0.00 0.00 0.00 38 973.2
20260503022423 64 217 0.9 1.7 0.00 0.00 0.00 36 973.1
20260503021933 65 217 0.0 1.7 0.00 0.00 0.00 34 973.3
20260503021923 65 217 0.9 1.7 0.00 0.00 0.00 36 973.1
20260503020930 65 217 0.9 1.7 0.00 0.00 0.00 35 973.2
20260503020923 65 217 0.0 1.7 0.00 0.00 0.00 34 973.2
20260503015922 66 217 0.0 1.7 0.00 0.00 0.00 34 973.3
20260503015423 66 217 0.9 1.7 0.00 0.00 0.00 33 973.3
20260503014920 66 217 0.9 1.7 0.00 0.00 0.00 32 973.3
20260503014431 66 219 0.9 1.7 0.00 0.00 0.00 36 973.4
20260503014423 66 219 0.9 1.7 0.00 0.00 0.00 37 973.4
20260503013422 66 219 0.9 2.6 0.00 0.00 0.00 35 973.4
20260503012920 66 217 1.7 2.6 0.00 0.00 0.00 33 973.4
20260503012423 66 217 0.9 2.6 0.00 0.00 0.00 34 973.5
20260503011928 66 219 0.0 2.6 0.00 0.00 0.00 33 973.6
20260503011921 66 219 0.9 2.6 0.00 0.00 0.00 33 973.5
20260503010919 66 219 0.9 3.5 0.00 0.00 0.00 34 973.6
20260503010422 66 219 1.7 3.5 0.00 0.00 0.00 34 973.6
20260503005928 66 219 0.0 3.5 0.00 0.00 0.00 32 973.7
20260503005921 66 219 0.9 2.6 0.00 0.00 0.00 33 973.6
20260503004920 66 219 1.7 3.5 0.00 0.00 0.00 33 973.7
20260503004422 66 221 0.9 3.5 0.00 0.00 0.00 33 973.8
20260503003921 66 224 1.7 3.5 0.00 0.00 0.00 34 973.9
20260503003421 66 240 0.9 4.3 0.00 0.00 0.00 34 973.8
20260503002919 66 243 1.7 7.8 0.00 0.00 0.00 34 973.8
20260503002421 66 220 2.6 7.8 0.00 0.00 0.00 34 974.0
20260503001925 66 159 3.5 11.3 0.00 0.00 0.00 37 974.0
20260503001918 65 192 4.3 11.3 0.00 0.00 0.00 35 974.0
20260503001545 66 233 7.0 13.0 0.00 0.00 0.00 36 974.1